| time (UTC) | temp F | wind direction | speed MPH | gust MPH | rain 1hr in | rain 24hr in | rain mn in | humidity % | barometer mb |
| 20260902144324 | 86 | 201 | 0.0 | 3.0 | 0.00 | 0.00 | 0.00 | 73 | 1016.9 |
| 20260902143828 | 86 | 201 | 1.0 | 4.0 | 0.00 | 0.00 | 0.00 | 75 | 1016.9 |
| 20260902143353 | 86 | 201 | 1.0 | 4.0 | 0.00 | 0.00 | 0.00 | 74 | 1016.8 |
| 20260902142836 | 86 | 201 | 0.0 | 3.0 | 0.00 | 0.00 | 0.00 | 75 | 1017.0 |
| 20260902142403 | 86 | 201 | 1.0 | 4.0 | 0.00 | 0.00 | 0.00 | 74 | 1017.0 |
| 20260902141826 | 85 | 201 | 1.0 | 5.0 | 0.00 | 0.00 | 0.00 | 74 | 1016.9 |
| 20260902141331 | 85 | 201 | 1.0 | 5.0 | 0.00 | 0.00 | 0.00 | 74 | 1017.0 |
| 20260902140836 | 85 | 196 | 1.0 | 4.0 | 0.00 | 0.00 | 0.00 | 76 | 1017.1 |
| 20260902140340 | 85 | 196 | 1.0 | 3.0 | 0.00 | 0.00 | 0.00 | 76 | 1016.9 |
| 20260902135825 | 84 | 196 | 0.0 | 3.0 | 0.00 | 0.00 | 0.00 | 78 | 1016.9 |
| 20260902135328 | 84 | 196 | 1.0 | 3.0 | 0.00 | 0.00 | 0.00 | 80 | 1017.0 |
| 20260902134832 | 83 | 196 | 1.0 | 4.0 | 0.00 | 0.00 | 0.00 | 79 | 1016.8 |
| 20260902134325 | 83 | 196 | 2.0 | 4.0 | 0.00 | 0.00 | 0.00 | 78 | 1017.0 |
| 20260902133829 | 83 | 196 | 0.0 | 3.0 | 0.00 | 0.00 | 0.00 | 80 | 1016.9 |
| 20260902133337 | 83 | 196 | 1.0 | 3.0 | 0.00 | 0.00 | 0.00 | 80 | 1016.9 |
| 20260902132901 | 82 | 196 | 1.0 | 4.0 | 0.00 | 0.00 | 0.00 | 80 | 1017.0 |
| 20260902132324 | 82 | 196 | 3.0 | 4.0 | 0.00 | 0.00 | 0.00 | 81 | 1017.1 |
| 20260902131827 | 82 | 196 | 0.0 | 3.0 | 0.00 | 0.00 | 0.00 | 82 | 1017.2 |
| 20260902131335 | 82 | 196 | 2.0 | 3.0 | 0.00 | 0.00 | 0.00 | 81 | 1017.2 |
| 20260902130840 | 82 | 196 | 1.0 | 4.0 | 0.00 | 0.00 | 0.00 | 82 | 1017.1 |
| 20260902130324 | 82 | 196 | 2.0 | 4.0 | 0.00 | 0.00 | 0.00 | 82 | 1017.1 |
| 20260902125849 | 81 | 196 | 1.0 | 3.0 | 0.00 | 0.00 | 0.00 | 82 | 1017.1 |
| 20260902125331 | 81 | 196 | 0.0 | 3.0 | 0.00 | 0.00 | 0.00 | 83 | 1017.2 |
| 20260902124856 | 81 | 196 | 0.0 | 3.0 | 0.00 | 0.00 | 0.00 | 84 | 1017.1 |
| 20260902124400 | 80 | 196 | 1.0 | 3.0 | 0.00 | 0.00 | 0.00 | 85 | 1017.0 |
| 20260902123843 | 80 | 196 | 2.0 | 3.0 | 0.00 | 0.00 | 0.00 | 84 | 1016.9 |
| 20260902123330 | 80 | 196 | 0.0 | 4.0 | 0.00 | 0.00 | 0.00 | 85 | 1016.8 |
| 20260902122838 | 79 | 196 | 2.0 | 3.0 | 0.00 | 0.00 | 0.00 | 85 | 1016.6 |
| 20260902122342 | 79 | 196 | 2.0 | 3.0 | 0.00 | 0.00 | 0.00 | 86 | 1016.6 |
| 20260902121825 | 78 | 196 | 1.0 | 3.0 | 0.00 | 0.00 | 0.00 | 87 | 1016.6 |
| 20260902121331 | 78 | 196 | 2.0 | 3.0 | 0.00 | 0.00 | 0.00 | 88 | 1016.6 |
| 20260902120838 | 77 | 198 | 1.0 | 3.0 | 0.00 | 0.00 | 0.00 | 90 | 1016.6 |
| 20260902120346 | 77 | 102 | 0.0 | 0.0 | 0.00 | 0.00 | 0.00 | 90 | 1016.6 |
| 20260902115849 | 76 | 102 | 0.0 | 1.0 | 0.00 | 0.00 | 0.00 | 90 | 1016.7 |
| 20260902115332 | 76 | 102 | 0.0 | 1.0 | 0.00 | 0.00 | 0.00 | 91 | 1016.6 |
| 20260902114837 | 76 | 102 | 0.0 | 2.0 | 0.00 | 0.00 | 0.00 | 91 | 1016.3 |
| 20260902114341 | 76 | 102 | 1.0 | 2.0 | 0.00 | 0.01 | 0.00 | 91 | 1016.3 |
| 20260902113826 | 75 | 102 | 0.0 | 1.0 | 0.00 | 0.01 | 0.00 | 92 | 1016.3 |
| 20260902113334 | 75 | 102 | 0.0 | 2.0 | 0.00 | 0.01 | 0.00 | 92 | 1016.5 |
| 20260902112839 | 75 | 102 | 1.0 | 2.0 | 0.00 | 0.01 | 0.00 | 92 | 1016.5 |
| 20260902112342 | 75 | 102 | 0.0 | 1.0 | 0.00 | 0.01 | 0.00 | 92 | 1016.3 |
| 20260902111847 | 75 | 102 | 0.0 | 3.0 | 0.00 | 0.01 | 0.00 | 92 | 1016.4 |
| 20260902111331 | 74 | 102 | 0.0 | 3.0 | 0.00 | 0.01 | 0.00 | 92 | 1016.1 |
| 20260902110855 | 74 | 355 | 0.0 | 2.0 | 0.00 | 0.01 | 0.00 | 92 | 1016.1 |
| 20260902110339 | 74 | 355 | 1.0 | 2.0 | 0.00 | 0.01 | 0.00 | 92 | 1016.2 |
| 20260902105843 | 74 | 355 | 0.0 | 1.0 | 0.00 | 0.01 | 0.00 | 92 | 1016.2 |
| 20260902105327 | 74 | 355 | 0.0 | 1.0 | 0.00 | 0.01 | 0.00 | 92 | 1016.3 |
| 20260902104831 | 74 | 355 | 0.0 | 1.0 | 0.00 | 0.01 | 0.00 | 92 | 1016.3 |
| 20260902104359 | 74 | 355 | 0.0 | 1.0 | 0.00 | 0.01 | 0.00 | 92 | 1016.3 |
| 20260902103826 | 74 | 355 | 0.0 | 1.0 | 0.00 | 0.01 | 0.00 | 92 | 1016.3 |
| 20260902103330 | 74 | 355 | 0.0 | 2.0 | 0.00 | 0.01 | 0.00 | 91 | 1016.5 |
| 20260902102839 | 74 | 355 | 0.0 | 2.0 | 0.00 | 0.01 | 0.00 | 90 | 1016.6 |
| 20260902102322 | 74 | 355 | 0.0 | 1.0 | 0.00 | 0.01 | 0.00 | 90 | 1016.8 |
| 20260902101849 | 75 | 355 | 0.0 | 1.0 | 0.00 | 0.01 | 0.00 | 91 | 1016.7 |
| 20260902101335 | 75 | 355 | 0.0 | 0.0 | 0.00 | 0.01 | 0.00 | 91 | 1016.5 |
| 20260902100843 | 75 | 355 | 0.0 | 0.0 | 0.00 | 0.01 | 0.00 | 91 | 1016.5 |
| 20260902100348 | 75 | 355 | 0.0 | 0.0 | 0.00 | 0.01 | 0.00 | 90 | 1016.5 |
| 20260902095831 | 75 | 355 | 0.0 | 0.0 | 0.00 | 0.01 | 0.00 | 90 | 1016.5 |
| 20260902095335 | 75 | 355 | 0.0 | 0.0 | 0.00 | 0.01 | 0.00 | 90 | 1016.6 |
| 20260902094839 | 75 | 355 | 0.0 | 0.0 | 0.00 | 0.01 | 0.00 | 90 | 1016.5 |
| 20260902094404 | 75 | 355 | 0.0 | 2.0 | 0.00 | 0.01 | 0.00 | 90 | 1016.5 |
| 20260902093846 | 75 | 355 | 0.0 | 2.0 | 0.00 | 0.01 | 0.00 | 90 | 1016.5 |
| 20260902093332 | 75 | 355 | 0.0 | 0.0 | 0.00 | 0.01 | 0.00 | 90 | 1016.5 |
| 20260902092838 | 75 | 355 | 0.0 | 0.0 | 0.00 | 0.01 | 0.00 | 90 | 1016.4 |
| 20260902092345 | 75 | 355 | 0.0 | 0.0 | 0.00 | 0.01 | 0.00 | 90 | 1016.2 |
| 20260902091833 | 75 | 355 | 0.0 | 0.0 | 0.00 | 0.01 | 0.00 | 90 | 1016.1 |
| 20260902091357 | 75 | 355 | 0.0 | 0.0 | 0.00 | 0.01 | 0.00 | 89 | 1016.2 |
| 20260902090844 | 75 | 355 | 0.0 | 0.0 | 0.00 | 0.01 | 0.00 | 89 | 1016.2 |
| 20260902090350 | 75 | 355 | 0.0 | 0.0 | 0.00 | 0.01 | 0.00 | 89 | 1016.3 |
| 20260902085857 | 75 | 355 | 0.0 | 1.0 | 0.00 | 0.01 | 0.00 | 89 | 1016.2 |
| 20260902085339 | 75 | 355 | 0.0 | 1.0 | 0.00 | 0.01 | 0.00 | 89 | 1016.2 |
| 20260902084827 | 76 | 355 | 0.0 | 1.0 | 0.00 | 0.01 | 0.00 | 89 | 1016.1 |
| 20260902084330 | 75 | 355 | 0.0 | 1.0 | 0.00 | 0.01 | 0.00 | 89 | 1016.2 |
| 20260902083837 | 75 | 355 | 0.0 | 1.0 | 0.00 | 0.01 | 0.00 | 89 | 1016.2 |
| 20260902083325 | 75 | 355 | 0.0 | 1.0 | 0.00 | 0.01 | 0.00 | 89 | 1016.1 |
| 20260902082829 | 75 | 355 | 0.0 | 1.0 | 0.00 | 0.01 | 0.00 | 89 | 1016.1 |
| 20260902082333 | 75 | 355 | 0.0 | 1.0 | 0.00 | 0.01 | 0.00 | 89 | 1016.1 |
| 20260902081838 | 75 | 355 | 0.0 | 1.0 | 0.00 | 0.01 | 0.00 | 89 | 1016.2 |
| 20260902081325 | 75 | 355 | 0.0 | 1.0 | 0.00 | 0.01 | 0.00 | 89 | 1016.3 |
| 20260902080833 | 75 | 355 | 0.0 | 1.0 | 0.00 | 0.01 | 0.00 | 89 | 1016.2 |
| 20260902080337 | 75 | 355 | 0.0 | 1.0 | 0.00 | 0.01 | 0.00 | 89 | 1016.0 |
| 20260902075842 | 75 | 355 | 0.0 | 1.0 | 0.00 | 0.01 | 0.00 | 89 | 1016.0 |
| 20260902075345 | 75 | 355 | 0.0 | 2.0 | 0.00 | 0.01 | 0.00 | 89 | 1016.0 |
| 20260902074829 | 75 | 355 | 0.0 | 2.0 | 0.00 | 0.01 | 0.00 | 88 | 1015.9 |
| 20260902074334 | 75 | 355 | 0.0 | 2.0 | 0.00 | 0.01 | 0.00 | 88 | 1015.9 |
| 20260902073838 | 76 | 355 | 1.0 | 1.0 | 0.00 | 0.01 | 0.00 | 88 | 1015.8 |
| 20260902073326 | 76 | 355 | 0.0 | 1.0 | 0.00 | 0.01 | 0.00 | 88 | 1015.9 |
| 20260902072830 | 76 | 355 | 0.0 | 1.0 | 0.00 | 0.01 | 0.00 | 88 | 1015.9 |
| 20260902072334 | 76 | 355 | 0.0 | 0.0 | 0.00 | 0.01 | 0.00 | 88 | 1015.9 |
| 20260902071838 | 76 | 355 | 0.0 | 0.0 | 0.00 | 0.01 | 0.00 | 88 | 1015.8 |
| 20260902071326 | 76 | 355 | 0.0 | 0.0 | 0.00 | 0.01 | 0.00 | 87 | 1015.9 |
| 20260902070832 | 76 | 355 | 0.0 | 0.0 | 0.00 | 0.01 | 0.00 | 87 | 1015.9 |
| 20260902070340 | 76 | 355 | 0.0 | 1.0 | 0.00 | 0.01 | 0.00 | 87 | 1015.9 |
| 20260902065905 | 76 | 355 | 0.0 | 1.0 | 0.00 | 0.01 | 0.00 | 87 | 1015.8 |
| 20260902065327 | 76 | 355 | 0.0 | 1.0 | 0.00 | 0.01 | 0.00 | 87 | 1015.6 |
| 20260902064851 | 77 | 355 | 0.0 | 2.0 | 0.00 | 0.01 | 0.00 | 87 | 1015.7 |
| 20260902064338 | 77 | 355 | 1.0 | 2.0 | 0.00 | 0.01 | 0.00 | 86 | 1015.8 |
| 20260902063843 | 77 | 355 | 0.0 | 2.0 | 0.00 | 0.01 | 0.00 | 86 | 1015.7 |
| 20260902063348 | 77 | 355 | 0.0 | 2.0 | 0.00 | 0.01 | 0.00 | 86 | 1015.7 |
| 20260902062831 | 77 | 355 | 0.0 | 2.0 | 0.00 | 0.01 | 0.00 | 86 | 1015.7 |
| 20260902062335 | 77 | 355 | 1.0 | 4.0 | 0.00 | 0.01 | 0.00 | 85 | 1015.8 |
| 20260902061859 | 77 | 355 | 2.0 | 4.0 | 0.00 | 0.01 | 0.00 | 85 | 1015.8 |
| 20260902061343 | 78 | 360 | 1.0 | 3.0 | 0.00 | 0.01 | 0.00 | 85 | 1015.8 |
| 20260902060847 | 78 | 322 | 1.0 | 4.0 | 0.00 | 0.01 | 0.00 | 85 | 1015.9 |
| 20260902060351 | 78 | 322 | 1.0 | 4.0 | 0.00 | 0.01 | 0.00 | 84 | 1016.0 |
| 20260902055839 | 79 | 322 | 3.0 | 4.0 | 0.00 | 0.01 | 0.00 | 83 | 1016.1 |
| 20260902055342 | 79 | 32 | 1.0 | 2.0 | 0.00 | 0.01 | 0.00 | 83 | 1015.9 |
| 20260902054825 | 79 | 312 | 0.0 | 2.0 | 0.00 | 0.01 | 0.00 | 83 | 1015.9 |
| 20260902054332 | 79 | 312 | 1.0 | 2.0 | 0.00 | 0.01 | 0.00 | 82 | 1016.1 |
| 20260902053840 | 79 | 312 | 1.0 | 2.0 | 0.00 | 0.01 | 0.00 | 81 | 1016.2 |
| 20260902053404 | 79 | 312 | 1.0 | 3.0 | 0.00 | 0.01 | 0.00 | 82 | 1016.2 |
| 20260902052848 | 79 | 312 | 0.0 | 3.0 | 0.00 | 0.01 | 0.00 | 82 | 1016.2 |
| 20260902052330 | 80 | 312 | 2.0 | 4.0 | 0.00 | 0.01 | 0.00 | 80 | 1016.5 |
| 20260902051858 | 81 | 312 | 2.0 | 4.0 | 0.00 | 0.01 | 0.00 | 78 | 1016.3 |
| 20260902051342 | 81 | 68 | 0.0 | 3.0 | 0.00 | 0.01 | 0.00 | 77 | 1016.2 |
| 20260902050826 | 81 | 121 | 1.0 | 4.0 | 0.00 | 0.01 | 0.00 | 77 | 1016.1 |
| 20260902050331 | 81 | 114 | 0.0 | 4.0 | 0.00 | 0.01 | 0.00 | 77 | 1016.1 |
| 20260902045835 | 82 | 140 | 1.0 | 3.0 | 0.00 | 0.01 | 0.00 | 77 | 1016.1 |
| 20260902045343 | 82 | 110 | 1.0 | 3.0 | 0.00 | 0.01 | 0.00 | 76 | 1016.2 |
| 20260902044828 | 82 | 76 | 0.0 | 3.0 | 0.00 | 0.01 | 0.00 | 76 | 1016.2 |
| 20260902044352 | 82 | 31 | 0.0 | 3.0 | 0.00 | 0.01 | 0.00 | 76 | 1016.2 |
| 20260902043835 | 82 | 31 | 0.0 | 3.0 | 0.00 | 0.01 | 0.00 | 76 | 1016.1 |
| 20260902043340 | 82 | 63 | 1.0 | 5.0 | 0.00 | 0.01 | 0.00 | 76 | 1016.1 |
| 20260902042825 | 82 | 94 | 2.0 | 5.0 | 0.00 | 0.01 | 0.00 | 75 | 1016.1 |
| 20260902042328 | 82 | 21 | 1.0 | 2.0 | 0.00 | 0.01 | 0.00 | 76 | 1016.0 |
| 20260902041836 | 81 | 269 | 0.0 | 1.0 | 0.00 | 0.01 | 0.00 | 77 | 1016.0 |
| 20260902041340 | 81 | 269 | 0.0 | 0.0 | 0.00 | 0.01 | 0.00 | 77 | 1015.9 |
| 20260902040825 | 81 | 269 | 0.0 | 0.0 | 0.00 | 0.01 | 0.00 | 77 | 1015.8 |
| 20260902040350 | 81 | 269 | 0.0 | 0.0 | 0.00 | 0.01 | 0.00 | 78 | 1015.7 |
| 20260902035852 | 81 | 269 | 0.0 | 0.0 | 0.00 | 0.01 | 0.00 | 77 | 1015.6 |
| 20260902035335 | 81 | 269 | 0.0 | 2.0 | 0.00 | 0.01 | 0.01 | 77 | 1015.7 |
| 20260902034843 | 81 | 269 | 1.0 | 2.0 | 0.00 | 0.01 | 0.01 | 77 | 1015.6 |
| 20260902034348 | 81 | 269 | 0.0 | 1.0 | 0.00 | 0.01 | 0.01 | 76 | 1015.5 |
| 20260902033831 | 81 | 269 | 0.0 | 1.0 | 0.00 | 0.01 | 0.01 | 76 | 1015.3 |
| 20260902033339 | 82 | 269 | 0.0 | 0.0 | 0.00 | 0.01 | 0.01 | 75 | 1015.5 |
| 20260902032904 | 82 | 269 | 0.0 | 1.0 | 0.00 | 0.01 | 0.01 | 75 | 1015.3 |
| 20260902032326 | 82 | 269 | 0.0 | 1.0 | 0.00 | 0.01 | 0.01 | 74 | 1015.4 |
| 20260902031829 | 82 | 269 | 0.0 | 3.0 | 0.00 | 0.01 | 0.01 | 74 | 1015.3 |
| 20260902031336 | 82 | 269 | 0.0 | 3.0 | 0.00 | 0.01 | 0.01 | 74 | 1015.3 |
| 20260902030824 | 83 | 269 | 0.0 | 2.0 | 0.00 | 0.01 | 0.01 | 73 | 1015.1 |
| 20260902030328 | 83 | 269 | 0.0 | 3.0 | 0.00 | 0.01 | 0.01 | 73 | 1014.9 |
| 20260902025833 | 83 | 269 | 1.0 | 3.0 | 0.00 | 0.01 | 0.01 | 73 | 1014.8 |
| 20260902025355 | 83 | 269 | 0.0 | 2.0 | 0.00 | 0.01 | 0.01 | 72 | 1014.9 |
| 20260902024826 | 84 | 269 | 1.0 | 2.0 | 0.00 | 0.01 | 0.01 | 72 | 1014.7 |
| 20260902024331 | 84 | 269 | 1.0 | 3.0 | 0.00 | 0.01 | 0.01 | 72 | 1014.7 |
| 20260902023835 | 83 | 269 | 2.0 | 3.0 | 0.00 | 0.01 | 0.01 | 72 | 1014.6 |
| 20260902023340 | 83 | 269 | 1.0 | 2.0 | 0.00 | 0.01 | 0.01 | 72 | 1014.4 |
| 20260902022844 | 84 | 269 | 1.0 | 3.0 | 0.00 | 0.01 | 0.01 | 72 | 1014.4 |
| 20260902022348 | 84 | 269 | 1.0 | 3.0 | 0.00 | 0.01 | 0.01 | 72 | 1014.3 |
| 20260902021832 | 84 | 269 | 0.0 | 3.0 | 0.00 | 0.01 | 0.01 | 71 | 1014.3 |
| 20260902021356 | 84 | 269 | 1.0 | 3.0 | 0.00 | 0.01 | 0.01 | 71 | 1014.4 |
| 20260902020840 | 84 | 269 | 1.0 | 3.0 | 0.00 | 0.01 | 0.01 | 70 | 1014.4 |
| 20260902020324 | 85 | 269 | 1.0 | 3.0 | 0.00 | 0.01 | 0.01 | 70 | 1014.4 |
| 20260902015829 | 85 | 269 | 1.0 | 5.0 | 0.00 | 0.01 | 0.01 | 69 | 1014.4 |
| 20260902015352 | 86 | 269 | 2.0 | 5.0 | 0.00 | 0.01 | 0.01 | 69 | 1014.5 |
| 20260902014836 | 85 | 266 | 1.0 | 3.0 | 0.00 | 0.01 | 0.01 | 69 | 1014.5 |
| 20260902014328 | 85 | 266 | 0.0 | 3.0 | 0.00 | 0.01 | 0.01 | 70 | 1014.6 |
| 20260902013832 | 85 | 265 | 1.0 | 3.0 | 0.00 | 0.01 | 0.01 | 70 | 1014.5 |
| 20260902013337 | 85 | 266 | 1.0 | 3.0 | 0.00 | 0.01 | 0.01 | 70 | 1014.6 |
| 20260902012841 | 85 | 266 | 1.0 | 2.0 | 0.00 | 0.01 | 0.01 | 70 | 1014.6 |
| 20260902012323 | 85 | 266 | 0.0 | 1.0 | 0.00 | 0.01 | 0.01 | 70 | 1014.7 |
| 20260902011831 | 86 | 265 | 0.0 | 3.0 | 0.00 | 0.01 | 0.01 | 70 | 1014.6 |
| 20260902011336 | 86 | 266 | 1.0 | 3.0 | 0.00 | 0.01 | 0.01 | 69 | 1014.6 |
| 20260902010840 | 86 | 265 | 1.0 | 3.0 | 0.00 | 0.01 | 0.01 | 69 | 1014.4 |
| 20260902010325 | 86 | 266 | 2.0 | 4.0 | 0.00 | 0.01 | 0.01 | 69 | 1014.4 |
| 20260902005830 | 87 | 265 | 3.0 | 5.0 | 0.00 | 0.01 | 0.01 | 68 | 1014.2 |
| 20260902005333 | 87 | 264 | 2.0 | 6.0 | 0.00 | 0.01 | 0.01 | 68 | 1013.9 |
| 20260902004842 | 87 | 248 | 1.0 | 6.0 | 0.00 | 0.01 | 0.01 | 68 | 1013.6 |
| 20260902004326 | 87 | 230 | 1.0 | 3.0 | 0.00 | 0.01 | 0.01 | 68 | 1013.5 |
| 20260902003833 | 87 | 230 | 1.0 | 4.0 | 0.00 | 0.01 | 0.01 | 67 | 1013.5 |
| 20260902003340 | 87 | 257 | 2.0 | 6.0 | 0.00 | 0.01 | 0.01 | 67 | 1013.5 |
| 20260902002828 | 87 | 190 | 2.0 | 7.0 | 0.00 | 0.01 | 0.01 | 68 | 1013.4 |
| 20260902002352 | 87 | 243 | 2.0 | 7.0 | 0.00 | 0.01 | 0.01 | 69 | 1013.4 |
| 20260902001835 | 86 | 263 | 2.0 | 4.0 | 0.00 | 0.01 | 0.01 | 69 | 1013.3 |
| 20260902001343 | 86 | 258 | 1.0 | 2.0 | 0.00 | 0.01 | 0.01 | 69 | 1013.1 |
| 20260902000827 | 87 | 258 | 0.0 | 2.0 | 0.00 | 0.01 | 0.01 | 69 | 1013.3 |
| 20260902000332 | 87 | 258 | 0.0 | 4.0 | 0.00 | 0.01 | 0.01 | 68 | 1013.3 |
| 20260901235837 | 88 | 259 | 0.0 | 5.0 | 0.00 | 0.01 | 0.01 | 67 | 1013.2 |
| 20260901235343 | 88 | 272 | 1.0 | 6.0 | 0.00 | 0.01 | 0.01 | 67 | 1013.1 |
| 20260901234830 | 89 | 277 | 2.0 | 7.0 | 0.00 | 0.01 | 0.01 | 66 | 1012.9 |
| 20260901234334 | 89 | 274 | 3.0 | 7.0 | 0.00 | 0.40 | 0.01 | 65 | 1012.7 |
| 20260901233859 | 89 | 266 | 4.0 | 11.0 | 0.00 | 0.40 | 0.01 | 65 | 1012.8 |
| 20260901233401 | 89 | 261 | 4.0 | 11.0 | 0.00 | 0.40 | 0.01 | 65 | 1012.8 |
| 20260901232828 | 90 | 255 | 4.0 | 9.0 | 0.00 | 0.40 | 0.01 | 65 | 1012.6 |
| 20260901232351 | 90 | 301 | 4.0 | 8.0 | 0.00 | 0.40 | 0.01 | 64 | 1012.7 |
| 20260901231835 | 90 | 284 | 3.0 | 8.0 | 0.00 | 0.40 | 0.01 | 64 | 1012.6 |
| 20260901231338 | 90 | 287 | 4.0 | 9.0 | 0.00 | 0.40 | 0.01 | 64 | 1012.6 |
| 20260901230826 | 91 | 285 | 5.0 | 9.0 | 0.00 | 0.40 | 0.01 | 63 | 1012.6 |
| 20260901230351 | 91 | 267 | 4.0 | 7.0 | 0.00 | 0.40 | 0.01 | 64 | 1012.6 |
| 20260901225834 | 91 | 269 | 4.0 | 7.0 | 0.00 | 0.40 | 0.01 | 64 | 1012.7 |
| 20260901225338 | 91 | 256 | 4.0 | 7.0 | 0.00 | 0.40 | 0.01 | 63 | 1012.8 |
| 20260901224842 | 91 | 279 | 4.0 | 7.0 | 0.00 | 0.40 | 0.01 | 63 | 1012.7 |
| 20260901224330 | 91 | 261 | 4.0 | 7.0 | 0.00 | 0.63 | 0.01 | 63 | 1012.7 |
| 20260901223838 | 91 | 268 | 4.0 | 7.0 | 0.00 | 0.63 | 0.01 | 64 | 1012.6 |
| 20260901223342 | 92 | 271 | 4.0 | 8.0 | 0.00 | 0.63 | 0.01 | 64 | 1012.6 |
| 20260901222827 | 92 | 263 | 5.0 | 8.0 | 0.00 | 0.63 | 0.01 | 63 | 1012.6 |
| 20260901222330 | 92 | 306 | 4.0 | 9.0 | 0.00 | 0.63 | 0.01 | 63 | 1012.6 |
| 20260901221835 | 92 | 244 | 5.0 | 9.0 | 0.00 | 0.63 | 0.01 | 63 | 1012.7 |
| 20260901221339 | 93 | 275 | 4.0 | 8.0 | 0.00 | 0.63 | 0.01 | 62 | 1012.7 |
| 20260901220824 | 93 | 218 | 4.0 | 9.0 | 0.00 | 0.63 | 0.01 | 64 | 1012.7 |
| 20260901220348 | 93 | 269 | 5.0 | 9.0 | 0.00 | 0.63 | 0.01 | 64 | 1012.6 |
| 20260901215832 | 93 | 256 | 4.0 | 7.0 | 0.00 | 0.63 | 0.01 | 64 | 1012.7 |
| 20260901215336 | 93 | 261 | 3.0 | 6.0 | 0.00 | 0.63 | 0.01 | 62 | 1012.6 |
| 20260901214859 | 93 | 265 | 3.0 | 7.0 | 0.00 | 0.63 | 0.01 | 62 | 1012.6 |
| 20260901214345 | 93 | 268 | 3.0 | 7.0 | 0.00 | 0.63 | 0.01 | 61 | 1012.7 |
| 20260901213836 | 94 | 253 | 3.0 | 9.0 | 0.00 | 0.63 | 0.01 | 61 | 1012.6 |
| 20260901213340 | 94 | 253 | 4.0 | 9.0 | 0.00 | 0.63 | 0.01 | 60 | 1012.8 |
| 20260901212827 | 94 | 256 | 1.0 | 9.0 | 0.00 | 0.63 | 0.01 | 60 | 1012.8 |
| 20260901212330 | 94 | 263 | 3.0 | 6.0 | 0.00 | 0.63 | 0.01 | 62 | 1012.8 |
| 20260901211835 | 94 | 261 | 2.0 | 6.0 | 0.00 | 0.63 | 0.01 | 60 | 1012.8 |
| 20260901211339 | 95 | 277 | 1.0 | 5.0 | 0.00 | 0.63 | 0.01 | 60 | 1012.8 |
| 20260901210824 | 95 | 247 | 0.0 | 7.0 | 0.00 | 0.63 | 0.01 | 59 | 1012.8 |
| 20260901210328 | 95 | 268 | 1.0 | 8.0 | 0.00 | 0.63 | 0.01 | 60 | 1012.8 |
| 20260901205833 | 95 | 275 | 3.0 | 7.0 | 0.00 | 0.63 | 0.01 | 61 | 1012.8 |
| 20260901205337 | 95 | 296 | 1.0 | 7.0 | 0.00 | 0.63 | 0.01 | 58 | 1012.7 |
| 20260901204825 | 95 | 263 | 4.0 | 10.0 | 0.00 | 0.63 | 0.01 | 57 | 1012.8 |
| 20260901204330 | 95 | 252 | 5.0 | 12.0 | 0.00 | 0.63 | 0.01 | 59 | 1012.9 |
| 20260901203834 | 94 | 252 | 4.0 | 12.0 | 0.00 | 0.63 | 0.01 | 57 | 1012.8 |
| 20260901203338 | 94 | 277 | 4.0 | 9.0 | 0.00 | 0.63 | 0.01 | 60 | 1012.8 |
| 20260901202826 | 95 | 264 | 4.0 | 9.0 | 0.00 | 0.63 | 0.01 | 58 | 1012.7 |
| 20260901202330 | 94 | 246 | 2.0 | 12.0 | 0.00 | 0.63 | 0.01 | 58 | 1012.7 |
| 20260901201833 | 95 | 261 | 5.0 | 12.0 | 0.00 | 0.63 | 0.01 | 57 | 1012.7 |
| 20260901201341 | 94 | 272 | 7.0 | 11.0 | 0.00 | 0.63 | 0.01 | 60 | 1012.8 |
| 20260901200826 | 94 | 273 | 6.0 | 10.0 | 0.00 | 0.63 | 0.01 | 60 | 1012.9 |
| 20260901200330 | 93 | 281 | 2.0 | 9.0 | 0.00 | 0.63 | 0.01 | 63 | 1013.0 |
| 20260901195835 | 94 | 277 | 3.0 | 9.0 | 0.00 | 0.63 | 0.01 | 61 | 1013.0 |
| 20260901195342 | 94 | 281 | 4.0 | 9.0 | 0.00 | 0.63 | 0.01 | 62 | 1013.0 |
| 20260901194846 | 94 | 269 | 5.0 | 11.0 | 0.00 | 0.63 | 0.01 | 60 | 1013.0 |
| 20260901194332 | 93 | 287 | 4.0 | 11.0 | 0.00 | 0.63 | 0.01 | 61 | 1013.0 |
| 20260901193837 | 93 | 251 | 3.0 | 10.0 | 0.00 | 0.63 | 0.01 | 61 | 1013.1 |
| 20260901193342 | 93 | 269 | 3.0 | 10.0 | 0.00 | 0.63 | 0.01 | 59 | 1013.1 |
| 20260901192825 | 93 | 266 | 3.0 | 11.0 | 0.00 | 0.63 | 0.01 | 61 | 1013.2 |
| 20260901192329 | 93 | 257 | 2.0 | 12.0 | 0.00 | 0.63 | 0.01 | 62 | 1013.3 |
| 20260901191853 | 93 | 263 | 4.0 | 12.0 | 0.00 | 0.63 | 0.01 | 62 | 1013.3 |
| 20260901191357 | 94 | 276 | 7.0 | 12.0 | 0.00 | 0.63 | 0.01 | 59 | 1013.3 |
| 20260901190840 | 94 | 283 | 7.0 | 11.0 | 0.00 | 0.63 | 0.01 | 61 | 1013.3 |
| 20260901190325 | 94 | 269 | 4.0 | 7.0 | 0.00 | 0.63 | 0.01 | 62 | 1013.5 |
| 20260901185829 | 94 | 258 | 4.0 | 7.0 | 0.00 | 0.63 | 0.01 | 62 | 1013.7 |
| 20260901185332 | 94 | 248 | 3.0 | 12.0 | 0.00 | 0.63 | 0.01 | 63 | 1013.8 |
| 20260901184839 | 94 | 251 | 5.0 | 12.0 | 0.00 | 0.63 | 0.01 | 62 | 1013.9 |
| 20260901184327 | 94 | 225 | 6.0 | 12.0 | 0.00 | 0.63 | 0.01 | 62 | 1013.9 |
| 20260901183832 | 94 | 257 | 6.0 | 10.0 | 0.00 | 0.63 | 0.01 | 64 | 1013.8 |
| 20260901183336 | 94 | 264 | 6.0 | 10.0 | 0.00 | 0.63 | 0.01 | 63 | 1013.9 |
| 20260901182900 | 94 | 255 | 7.0 | 10.0 | 0.00 | 0.63 | 0.01 | 64 | 1013.9 |
| 20260901182321 | 93 | 276 | 4.0 | 12.0 | 0.00 | 0.63 | 0.01 | 62 | 1014.0 |
| 20260901181829 | 94 | 262 | 5.0 | 12.0 | 0.00 | 0.63 | 0.01 | 63 | 1014.0 |
| 20260901181334 | 94 | 227 | 3.0 | 10.0 | 0.00 | 0.63 | 0.01 | 62 | 1014.1 |
| 20260901180857 | 94 | 310 | 3.0 | 13.0 | 0.00 | 0.63 | 0.01 | 65 | 1014.2 |
| 20260901180324 | 94 | 284 | 6.0 | 13.0 | 0.00 | 0.63 | 0.01 | 62 | 1014.3 |
| 20260901175847 | 94 | 265 | 4.0 | 8.0 | 0.00 | 0.63 | 0.01 | 64 | 1014.2 |
| 20260901175333 | 93 | 257 | 3.0 | 13.0 | 0.00 | 0.63 | 0.01 | 64 | 1014.3 |
| 20260901174857 | 93 | 236 | 4.0 | 13.0 | 0.00 | 0.63 | 0.01 | 65 | 1014.3 |
| 20260901174401 | 92 | 247 | 4.0 | 6.0 | 0.00 | 0.63 | 0.01 | 71 | 1014.3 |
| 20260901173829 | 92 | 259 | 3.0 | 7.0 | 0.00 | 0.63 | 0.01 | 69 | 1014.2 |
| 20260901173333 | 92 | 279 | 3.0 | 9.0 | 0.00 | 0.63 | 0.01 | 70 | 1014.1 |
| 20260901172838 | 92 | 280 | 3.0 | 12.0 | 0.00 | 0.63 | 0.01 | 66 | 1014.2 |
| 20260901172402 | 92 | 286 | 6.0 | 12.0 | 0.00 | 0.63 | 0.01 | 67 | 1014.2 |
| 20260901171825 | 92 | 238 | 3.0 | 6.0 | 0.00 | 0.63 | 0.01 | 71 | 1014.2 |
| 20260901171330 | 92 | 274 | 2.0 | 6.0 | 0.00 | 0.63 | 0.01 | 73 | 1014.3 |
| 20260901170854 | 92 | 284 | 3.0 | 6.0 | 0.00 | 0.63 | 0.01 | 73 | 1014.3 |
| 20260901170338 | 91 | 230 | 2.0 | 6.0 | 0.00 | 0.63 | 0.01 | 72 | 1014.2 |
| 20260901165842 | 91 | 232 | 2.0 | 6.0 | 0.00 | 0.63 | 0.01 | 73 | 1014.4 |
| 20260901165346 | 91 | 269 | 2.0 | 6.0 | 0.00 | 0.63 | 0.01 | 71 | 1014.6 |
| 20260901164849 | 90 | 225 | 3.0 | 6.0 | 0.00 | 0.63 | 0.01 | 74 | 1014.6 |
| 20260901164333 | 90 | 207 | 3.0 | 7.0 | 0.00 | 0.63 | 0.01 | 73 | 1014.7 |
| 20260901163838 | 90 | 224 | 4.0 | 7.0 | 0.00 | 0.63 | 0.01 | 75 | 1014.8 |
| 20260901163342 | 89 | 237 | 1.0 | 4.0 | 0.00 | 0.63 | 0.01 | 74 | 1014.8 |
| 20260901162831 | 89 | 282 | 2.0 | 5.0 | 0.00 | 0.63 | 0.01 | 74 | 1014.8 |
| 20260901162334 | 89 | 269 | 2.0 | 5.0 | 0.00 | 0.63 | 0.01 | 76 | 1015.0 |
| 20260901161821 | 88 | 265 | 1.0 | 5.0 | 0.00 | 0.63 | 0.01 | 78 | 1014.9 |
| 20260901161328 | 87 | 201 | 2.0 | 4.0 | 0.00 | 0.63 | 0.01 | 77 | 1014.9 |
| 20260901160833 | 87 | 201 | 2.0 | 4.0 | 0.00 | 0.63 | 0.01 | 78 | 1015.0 |
| 20260901160356 | 86 | 231 | 1.0 | 3.0 | 0.00 | 0.63 | 0.01 | 78 | 1014.9 |
| 20260901155822 | 86 | 231 | 1.0 | 5.0 | 0.00 | 0.63 | 0.01 | 77 | 1015.0 |
| 20260901155349 | 86 | 192 | 2.0 | 6.0 | 0.00 | 0.63 | 0.01 | 76 | 1015.3 |
| 20260901154852 | 87 | 192 | 3.0 | 6.0 | 0.00 | 0.63 | 0.01 | 75 | 1015.4 |
| 20260901154336 | 87 | 195 | 2.0 | 5.0 | 0.00 | 0.63 | 0.01 | 76 | 1015.4 |
| 20260901153840 | 88 | 225 | 2.0 | 10.0 | 0.00 | 0.63 | 0.01 | 75 | 1015.4 |
| 20260901153328 | 88 | 267 | 2.0 | 10.0 | 0.00 | 0.63 | 0.01 | 74 | 1015.3 |
| 20260901152833 | 88 | 248 | 2.0 | 7.0 | 0.00 | 0.63 | 0.01 | 78 | 1015.4 |
| 20260901152340 | 88 | 227 | 2.0 | 5.0 | 0.00 | 0.63 | 0.01 | 75 | 1015.5 |
| 20260901151825 | 87 | 271 | 3.0 | 6.0 | 0.00 | 0.63 | 0.01 | 79 | 1015.5 |
| 20260901151328 | 87 | 230 | 1.0 | 9.0 | 0.00 | 0.63 | 0.01 | 77 | 1015.4 |
| 20260901150835 | 87 | 177 | 2.0 | 9.0 | 0.00 | 0.63 | 0.01 | 78 | 1015.3 |
| 20260901150321 | 86 | 205 | 4.0 | 7.0 | 0.00 | 0.63 | 0.01 | 78 | 1015.4 |
| 20260901145829 | 85 | 147 | 4.0 | 7.0 | 0.00 | 0.63 | 0.01 | 81 | 1015.4 |
| 20260901145353 | 85 | 198 | 2.0 | 7.0 | 0.00 | 0.63 | 0.01 | 81 | 1015.6 |
| 20260901144856 | 84 | 207 | 3.0 | 7.0 | 0.00 | 0.63 | 0.01 | 82 | 1015.6 |